Regional Weather Roundup
Issued by NWS Bismarck, ND

Home | Current Version | Previous Version | Text Only | Print | Product List | Glossary On
Versions: 1 2 3 4 5 6 7 8 9 10 11 12 13 14 15 16 17 18 19 20 21 22 23 24 25 26 27 28 29 30 31 32 33 34 35 36 37 38 39 40 41 42 43 44 45 46 47 48 49 50
000
ASUS43 KBIS 271410
RWRBIS

NWR BROADCAST TEXT
NATIONAL WEATHER SERVICE BISMARCK ND
900 AM CDT FRI MAY 27 2016

NOTE: "FAIR" INDICATES FEW OR NO CLOUDS BELOW 12,000 FEET WITH NO
SIGNIFICANT WEATHER AND/OR OBSTRUCTIONS TO VISIBILITY.


CITY           SKY/WX    TMP DP  RH WIND       PRES   REMARKS
WILLISTON      MOSUNNY   58  50  75 N3        29.87S
MINOT          CLOUDY    59  54  83 W6        29.83R
MINOT AFB      CLOUDY    55  54  94 NW9       29.82S
BISMARCK       SUNNY     57  51  80 NW7       29.84R
DICKINSON      SUNNY     53  47  79 NW6       29.84F
GARRISON         N/A     53  52  96 NW6       29.85R
HETTINGER ARPT CLOUDY    58  48  69 N3        29.86R
JAMESTOWN      MOSUNNY   61  55  81 NE9       29.80S
BEACH          PTSUNNY   50  50 100 CALM      29.90S
CARRINGTON     FOG       54  54 100 NW6       29.84S VSB 1/4
HAZEN          FAIR      55  54  94 W3        29.87S
LINTON           N/A     55  55 100 N6          N/A
MANDAN         FOG       52  52 100 N7        29.85R VSB 1
OAKES            N/A    N/A N/A N/A MISG        N/A
RUGBY          CLOUDY    54  54 100 NW7       29.83S
STANLEY        PTSUNNY   57  57 100 NW8       29.88R
WATFORD CITY   PTSUNNY   54  52  94 CALM      29.88R
$$

CITY           SKY/WX    TMP DP  RH WIND       PRES   REMARKS
GRAND FORKS    MOSUNNY   62  54  74 CALM      29.80R
GRAND FORKS AF NOT AVBL
DEVILS LAKE    CLOUDY    57  54  89 NW6       29.82S
FARGO          MOSUNNY   63  57  81 N9        29.78R
CAVALIER       FAIR      59  55  88 W7        29.79F
GRAFTON        FAIR      61  57  88 CALM      29.81S
GWINNER        FAIR      64  55  72 NE3       29.79R
LANGDON        PTSUNNY   59  57  94 NW10      29.81F
ROLLA          PTSUNNY   55  55 100 NW10      29.83S
WALHALLA       FAIR      59  59 100 W5        29.80S
$$

CITY           SKY/WX    TMP DP  RH WIND       PRES   REMARKS
ABERDEEN       CLOUDY    65  56  72 NE5       29.78R
MOBRIDGE       MOSUNNY   61  51  70 N9        29.77F
BUFFALO          N/A     58  45  62 W9        29.80S
RAPID CITY     CLOUDY    57  44  62 NE5       29.85S
GLASGOW        SUNNY     54  48  80 CALM      29.91R
SIDNEY         SUNNY     55  50  83 NE5       29.89R
WOLF POINT     SUNNY     58  50  75 E6        29.89F
GLENDIVE       CLOUDY    48  48 100 NE3       29.91R
MILES CITY     CLOUDY    54  49  83 W7        29.88S
BAKER          CLOUDY    51  47  86 W5        29.88S
$$

CITY           SKY/WX    TMP DP  RH WIND       PRES   REMARKS
BILLINGS       MOSUNNY   51  44  77 SW8       29.91S
GREAT FALLS    CLOUDY    52  44  74 SW5       29.88R
REGINA         MOSUNNY   59  52  77 E6        29.89S
ESTEVAN        LGT RAIN  57  54  88 NW7       29.86S
$$





USA.gov is the U.S. government's official web portal to all federal, state and local government web resources and services.